Location: Brede
(50.9167°N, 0.6000°E)
Time: 00:47:53
(UTC+00:00)

CZ-2C R/B - Pass Details

Date: 08 August 2020
Orbit: 501 x 568 km, 97.7° (Epoch: 19 September)

Event Time Altitude Azimuth Distance (km) Brightness Sun altitude
Rises 03:09:52 0° 18° (NNE) 2,724 7.6 -11.6°
Reaches altitude 10° 03:12:06 10° 24° (NNE) 1,815 6.7 -11.4°
Maximum altitude 03:15:52 46° 99° (E) 723 3.7 -11.0°
Drops below altitude 10° 03:19:33 10° 174° (S) 1,760 5.1 -10.5°
Enters shadow 03:20:47 - 178° (S) 2,265 5.6 -10.4°
